Fort Bragg, NC

3:33 PM EDT on April 29, 2017 (GMT -0400)
Simmons Army Air Field

Weather History for KFBG - May, 2013

Change the Weather History Date:

Friday, May 3, 2013

  Actual Average Record
Temperature  
Mean Temperature 61 °F -  
Max Temperature 71 °F 76 °F 91 °F (2012)
Min Temperature 52 °F 55 °F 48 °F (2005)
Degree Days  
Heating Degree Days 4    
Growing Degree Days 11 (Base 50)    
Moisture  
Dew Point 50 °F    
Average Humidity 71    
Maximum Humidity 95    
Minimum Humidity 47    
Precipitation  
Precipitation 0.00 in - - ()
Sea Level Pressure  
Sea Level Pressure 30.20 in    
Wind  
Wind Speed 9 mph (NE)    
Max Wind Speed 18 mph    
Max Gust Speed 26 mph    
Visibility 10 miles    
Events      
Averages and records for this station are not official NWS values.
T = Trace of Precipitation, MM = Missing Value Source: NWS Daily Summary

Daily Weather History Graph

Daily Weather History Graph

Search for Another Location

Airport or City:

Trip Planner

Search our weather history database for the weather conditions in past years. The results will help you decide how hot, cold, wet, or windy it might be!

Date:

Astronomy

May. 03, 2013 Rise Set
Actual Time 6:22 AM EDT 8:03 PM EDT
Civil Twilight 5:55 AM EDT 8:30 PM EDT
Nautical Twilight 5:22 AM EDT 9:03 PM EDT
Astronomical Twilight 4:47 AM EDT 9:38 PM EDT
Moon 2:31 AM EDT (5/3) 2:09 PM EDT (5/3)
Length of Visible Light 14h 35m
Length of Day
13h 40m
Last Quarter, 37% of the Moon is Illuminated
May 3
Last Quarter
May 9
New
May 18
First Quarter
May 25
Full
May 31
Last Quarter

Hourly Weather History & Observations

Time (EDT) Temp. Dew Point Humidity Pressure Visibility Wind Dir Wind Speed Gust Speed Precip Events Conditions
12:58 AM 56.7 °F 52.7 °F 87% 30.24 in 10.0 mi NE 8.1 mph - N/A   Clear
1:58 AM 55.4 °F 52.5 °F 90% 30.22 in 10.0 mi NNE 6.9 mph - N/A   Clear
2:58 AM 54.3 °F 51.8 °F 91% 30.20 in 10.0 mi NNE 5.8 mph - N/A   Clear
3:58 AM 53.6 °F 51.3 °F 92% 30.19 in 10.0 mi NNE 8.1 mph - N/A   Clear
4:58 AM 52.9 °F 50.9 °F 93% 30.19 in 10.0 mi North 4.6 mph - N/A   Clear
5:58 AM 52.2 °F 50.7 °F 95% 30.19 in 10.0 mi NNE 8.1 mph - N/A   Clear
6:58 AM 53.1 °F 51.1 °F 93% 30.21 in 10.0 mi NNE 3.5 mph - N/A   Overcast
7:58 AM 54.7 °F 51.8 °F 90% 30.22 in 10.0 mi NE 8.1 mph - N/A   Partly Cloudy
8:58 AM 57.2 °F 52.7 °F 85% 30.23 in 10.0 mi NE 8.1 mph - N/A   Partly Cloudy
9:58 AM 61.3 °F 52.3 °F 72% 30.23 in 10.0 mi NE 10.4 mph - N/A   Clear
10:58 AM 63.9 °F 52.3 °F 66% 30.24 in 10.0 mi NE 11.5 mph - N/A   Clear
11:58 AM 66.6 °F 53.4 °F 63% 30.23 in 10.0 mi East 10.4 mph 20.7 mph N/A   Partly Cloudy
12:58 PM 67.3 °F 53.4 °F 61% 30.21 in 10.0 mi NE 12.7 mph 23.0 mph N/A   Scattered Clouds
1:58 PM 69.4 °F 54.1 °F 58% 30.19 in 10.0 mi East 13.8 mph 20.7 mph N/A   Scattered Clouds
2:58 PM 70.0 °F 52.7 °F 54% 30.18 in 10.0 mi East 11.5 mph - N/A   Partly Cloudy
3:58 PM 69.8 °F 53.1 °F 55% 30.16 in 10.0 mi ENE 9.2 mph - N/A   Partly Cloudy
4:58 PM 70.7 °F 49.3 °F 47% 30.15 in 10.0 mi ENE 18.4 mph 24.2 mph N/A   Clear
5:58 PM 68.5 °F 50.2 °F 52% 30.14 in 10.0 mi ENE 13.8 mph 20.7 mph N/A   Partly Cloudy
6:58 PM 66.7 °F 48.4 °F 52% 30.15 in 10.0 mi East 15.0 mph - N/A   Scattered Clouds
7:58 PM 63.0 °F 44.1 °F 50% 30.17 in 10.0 mi ENE 13.8 mph 20.7 mph N/A   Clear
8:58 PM 59.5 °F 45.5 °F 60% 30.18 in 10.0 mi ENE 15.0 mph 26.5 mph N/A   Clear
9:58 PM 56.8 °F 42.6 °F 59% 30.20 in 10.0 mi ENE 16.1 mph 24.2 mph N/A   Clear
10:58 PM 55.0 °F 41.9 °F 61% 30.19 in 10.0 mi ENE 13.8 mph 20.7 mph N/A   Clear
11:58 PM 54.1 °F 43.5 °F 67% 30.18 in 10.0 mi NE 12.7 mph - N/A   Scattered Clouds